Tracking 28794 objects as of 19-Apr-2024
HD Live streaming from Space Station
objects crossing your sky now

ARIANE 44L DEB

Track ARIANE 44L DEB now!


NORAD ID: 28576
Int'l Code: 1991-075N
Perigee: 790.6 km
Apogee: 28,612.9 km
Inclination: 7.1 °
Period: 507.4 minutes
Semi major axis: 21072 km
RCS: 1.4894 m2 (large)
Launch date: October 29, 1991
Source: France (FR)
Launch site: FRENCH GUIANA (FRGUI)

Note: This is SATELLITE DEBRIS
Your satellite tracking list
Your tracking list is empty




NASA's NSSDC Master Catalog

Two Line Element Set (TLE):
1 28576U 91075N   24109.64340990  .00000451  00000-0  15526-1 0  9991
2 28576   7.0727 349.7845 6601492  80.5489 170.4811  2.83806411231141
Source of the keplerian elements: AFSPC